contact:dominique.lefevre@mio.osupytheas.fr, maurice.libes@osupytheas.fr
Project:EMSO Ligure-ouest http://www.emso-fr.org/EMSO-France
Sensor Aquadopp, line 13 Serial AQD14315 
DOI : "https://doi.org/10.17882/74513; https://doi.org/10.17882/83244" 
Title:EMSO Ligure Ouest : Data ligne ALBATROSS capteur AQUADOPP - deploiement 2021
Id,Date,Profondeur,Latitude,Longitude,X_East,Y_North,Z_Up,Amplitude_X,Amplitude_Y,Amplitude_Z,Batterie,SoundSpeed,Heading,Pitch,Roll,Pressure,Temperature,Speed,Direction
, , m, degrees North, degrees East, m.s-1, m.s-1,m.s-1, 1, 1, 1, Volt, m.s-1, degree, degree, degree, dbar, degree_C, m.s-1, degree
09,2023-01-29T23:30:00,2000.0,42.79,6.0312,0.055,-0.014,0.025,72.0,67.0,71.0,12.4,1504.7,116.7,-0.7,0.9,1992.483,13.29,0.056,104.3
09,2023-01-30T00:00:00,2000.0,42.79,6.0312,0.048,-0.026,-0.001,73.0,68.0,74.0,12.4,1504.7,114.6,-1.0,0.8,1992.516,13.28,0.054,118.4
09,2023-01-30T00:30:00,2000.0,42.79,6.0312,0.038,-0.003,0.009,72.0,68.0,72.0,12.4,1504.7,99.8,-0.8,0.9,1992.49,13.28,0.038,94.5
09,2023-01-30T01:00:00,2000.0,42.79,6.0312,0.04,-0.016,-0.016,74.0,68.0,72.0,12.4,1504.7,136.2,-0.9,0.9,1992.495,13.28,0.043,111.8
09,2023-01-30T02:00:00,2000.0,42.79,6.0312,0.042,0.0,0.006,70.0,68.0,71.0,12.4,1504.7,120.3,-0.9,1.0,1992.514,13.29,0.042,90.0
09,2023-01-30T03:00:00,2000.0,42.79,6.0312,0.03,0.007,0.008,72.0,68.0,73.0,12.4,1504.7,108.5,-1.2,1.0,1992.529,13.29,0.03,76.9
09,2023-01-30T03:30:00,2000.0,42.79,6.0312,0.056,0.007,-0.026,73.0,70.0,71.0,12.4,1504.7,105.6,-0.4,1.0,1992.565,13.29,0.056,82.9
09,2023-01-30T04:00:00,2000.0,42.79,6.0312,0.049,0.0,0.007,72.0,68.0,71.0,12.4,1504.7,100.8,-0.8,0.9,1992.551,13.29,0.049,90.0
09,2023-01-30T04:30:00,2000.0,42.79,6.0312,0.043,0.01,0.019,69.0,66.0,68.0,12.4,1504.7,119.8,-1.0,0.8,1992.495,13.29,0.044,76.9
09,2023-01-30T05:00:00,2000.0,42.79,6.0312,0.048,-0.021,0.034,70.0,67.0,72.0,12.4,1504.7,124.4,-0.8,0.9,1992.542,13.29,0.052,113.6
09,2023-01-30T05:30:00,2000.0,42.79,6.0312,0.061,-0.014,-0.012,71.0,66.0,70.0,12.4,1504.7,133.0,-0.9,0.9,1992.509,13.29,0.062,102.9
09,2023-01-30T06:00:00,2000.0,42.79,6.0312,0.041,-0.017,-0.017,68.0,65.0,68.0,12.4,1504.7,132.4,-0.8,0.9,1992.499,13.29,0.044,112.5
09,2023-01-30T06:30:00,2000.0,42.79,6.0312,0.077,-0.004,0.002,69.0,64.0,69.0,12.4,1504.7,122.6,-0.8,0.9,1992.501,13.29,0.077,93.0
09,2023-01-30T07:00:00,2000.0,42.79,6.0312,0.05,-0.022,0.009,68.0,66.0,65.0,12.4,1504.7,131.0,-0.6,0.8,1992.521,13.29,0.054,113.7
09,2023-01-30T07:30:00,2000.0,42.79,6.0312,0.058,-0.01,-0.02,71.0,69.0,72.0,12.4,1504.7,121.0,-1.5,1.0,1992.479,13.29,0.058,99.8
09,2023-01-30T08:00:00,2000.0,42.79,6.0312,0.053,0.0,0.011,72.0,68.0,72.0,12.4,1504.7,132.5,-0.7,0.8,1992.479,13.29,0.053,90.0
09,2023-01-30T08:30:00,2000.0,42.79,6.0312,0.069,-0.039,-0.015,71.0,69.0,74.0,12.4,1504.7,131.3,-0.9,0.9,1992.501,13.29,0.079,119.5
09,2023-01-30T09:00:00,2000.0,42.79,6.0312,0.033,-0.052,0.009,73.0,68.0,72.0,12.4,1504.7,122.1,-1.1,0.9,1992.454,13.29,0.061,147.6
09,2023-01-30T09:30:00,2000.0,42.79,6.0312,0.049,-0.029,0.003,72.0,69.0,72.0,12.4,1504.7,124.6,-0.8,0.9,1992.489,13.29,0.056,120.6
09,2023-01-30T10:00:00,2000.0,42.79,6.0312,0.052,-0.036,-0.024,72.0,71.0,72.0,12.4,1504.7,130.6,-0.8,1.0,1992.535,13.29,0.063,124.7
09,2023-01-30T10:30:00,2000.0,42.79,6.0312,0.06,-0.036,0.013,72.0,69.0,71.0,12.4,1504.7,126.8,-1.0,1.0,1992.493,13.29,0.069,121.0
09,2023-01-30T11:00:00,2000.0,42.79,6.0312,0.05,-0.028,-0.02,73.0,72.0,74.0,12.4,1504.7,126.6,-1.1,0.9,1992.475,13.29,0.057,119.3
09,2023-01-30T11:30:00,2000.0,42.79,6.0312,0.043,-0.023,-0.009,75.0,70.0,73.0,12.4,1504.7,133.6,-1.1,0.9,1992.536,13.29,0.048,118.1
09,2023-01-30T12:30:00,2000.0,42.79,6.0312,0.037,-0.012,0.014,73.0,69.0,73.0,12.4,1504.7,124.9,-1.1,1.0,1992.514,13.29,0.038,108.0
09,2023-01-30T13:00:00,2000.0,42.79,6.0312,0.037,-0.042,-0.006,73.0,70.0,72.0,12.4,1504.7,125.8,-1.3,1.0,1992.53,13.29,0.055,138.6
09,2023-01-30T13:30:00,2000.0,42.79,6.0312,0.042,-0.008,0.008,75.0,70.0,74.0,12.4,1504.7,124.6,-1.1,1.0,1992.521,13.29,0.042,100.8
09,2023-01-30T14:00:00,2000.0,42.79,6.0312,0.057,-0.034,-0.002,75.0,70.0,72.0,12.4,1504.7,121.2,-0.9,1.0,1992.506,13.29,0.066,120.8
09,2023-01-30T15:00:00,2000.0,42.79,6.0312,0.042,-0.036,-0.019,74.0,71.0,74.0,12.4,1504.7,128.0,-0.9,1.1,1992.495,13.29,0.055,130.6
09,2023-01-30T15:30:00,2000.0,42.79,6.0312,0.033,-0.025,0.007,74.0,71.0,73.0,12.4,1504.7,113.6,-1.1,1.1,1992.513,13.29,0.041,127.1
09,2023-01-30T16:00:00,2000.0,42.79,6.0312,0.054,-0.045,-0.03,71.0,69.0,71.0,12.4,1504.7,118.2,-0.9,0.7,1992.509,13.29,0.07,129.8
09,2023-01-30T16:30:00,2000.0,42.79,6.0312,0.068,-0.031,0.02,72.0,70.0,72.0,12.4,1504.7,125.3,-0.9,0.9,1992.566,13.29,0.074,114.5
09,2023-01-30T17:00:00,2000.0,42.79,6.0312,0.042,-0.057,0.018,73.0,69.0,72.0,12.4,1504.7,131.2,-1.2,1.1,1992.492,13.29,0.07,143.6
09,2023-01-30T17:30:00,2000.0,42.79,6.0312,0.069,-0.056,-0.043,73.0,68.0,74.0,12.4,1504.7,129.1,-0.8,0.7,1992.482,13.29,0.088,129.1
09,2023-01-30T18:00:00,2000.0,42.79,6.0312,0.061,-0.036,0.01,72.0,68.0,72.0,12.4,1504.7,116.0,-1.2,1.1,1992.476,13.29,0.07,120.5
09,2023-01-30T18:30:00,2000.0,42.79,6.0312,0.073,-0.051,0.012,71.0,68.0,72.0,12.4,1504.7,121.4,-0.7,0.6,1992.456,13.29,0.089,124.9
09,2023-01-30T19:00:00,2000.0,42.79,6.0312,0.051,-0.04,-0.021,71.0,67.0,69.0,12.4,1504.7,123.1,-0.8,0.7,1992.465,13.29,0.064,128.1
09,2023-01-30T19:30:00,2000.0,42.79,6.0312,0.068,-0.036,0.037,71.0,69.0,70.0,12.4,1504.7,120.4,-1.3,1.0,1992.466,13.29,0.076,117.9
09,2023-01-30T20:00:00,2000.0,42.79,6.0312,0.055,-0.075,0.005,70.0,66.0,69.0,12.4,1504.7,140.0,-1.1,1.0,1992.438,13.29,0.093,143.7
09,2023-01-30T20:30:00,2000.0,42.79,6.0312,0.065,-0.038,0.005,70.0,65.0,66.0,12.4,1504.7,115.2,-1.3,1.2,1992.419,13.29,0.075,120.3
09,2023-01-30T21:00:00,2000.0,42.79,6.0312,0.035,-0.037,0.011,69.0,66.0,69.0,12.4,1504.7,128.9,-0.8,0.7,1992.426,13.28,0.05,136.6
09,2023-01-30T21:30:00,2000.0,42.79,6.0312,0.064,-0.03,-0.009,70.0,65.0,69.0,12.4,1504.7,106.6,-1.1,0.9,1992.392,13.28,0.07,115.1
09,2023-01-30T22:00:00,2000.0,42.79,6.0312,0.053,-0.041,0.005,69.0,67.0,67.0,12.4,1504.7,123.4,-1.3,0.9,1992.422,13.28,0.067,127.7
09,2023-01-30T22:30:00,2000.0,42.79,6.0312,0.055,-0.006,-0.023,68.0,68.0,71.0,12.4,1504.7,129.1,-1.1,0.9,1992.376,13.29,0.055,96.2
09,2023-01-30T23:00:00,2000.0,42.79,6.0312,0.049,-0.019,-0.025,71.0,66.0,68.0,12.4,1504.7,129.0,-0.9,1.1,1992.416,13.29,0.052,111.2
